Location: Baumgarten
(49.0970°N, 12.7493°E)
Time: 01:33:17
(UTC+00:00)

Cosmos 2278 Rocket - Pass Details

Date: 05 July 2020
Orbit: 841 x 845 km, 71.0° (Epoch: 11 August)

Event Time Altitude Azimuth Distance (km) Brightness Sun altitude
Rises 22:44:57 0° 322° (NW) 3,415 6.4 -17.9°
Reaches altitude 10° 22:47:53 10° 308° (NW) 2,474 5.2 -18.0°
Maximum altitude 22:52:10 23° 259° (WSW) 1,745 3.8 -18.1°
Enters shadow 22:54:40 17° 225° (SW) 2,018 3.8 -18.1°
